sat.trackr.live / text

‹ back to catalog

STARLINK-34545

NORAD 65105 · 2025-167AD

PAYLOAD ACTIVE UNKNOWN

§ Identity

Operator
Country
US
Launch date
2025-08-04
Launch site
AFETR
Launch vehicle
Mass (kg)
RCS (m²)

Purposes: comms

External: N2YO · Heavens-Above · Gunter

§ Orbital elements

Epoch: 2026-09-19T07:17:11.335488Z

Period
93.85 min
Inclination
53.1575°
Eccentricity
0.0001272
Mean motion
15.34413670 rev/d
Perigee alt
461.8 km
Apogee alt
463.5 km
Semi-major
6,840.8 km
B*
4.8347e-4
RAAN
199.4756°
Arg perigee
80.2068°
Mean anomaly
279.9079°
Rev number
6,323

§ Raw data

STARLINK-345451 65105U 25167AD  26262.30360342  .00016001  00000+0  48347-3 0  99932 65105  53.1575 199.4756 0001272  80.2068 279.9079 15.34413670 63233

JSON: /api/v1/satellites/65105 · /tle

For live sub-satellite position, see the globe view (requires WebGL).

§ Visibility from observer

Set your observer location to see the next 7 days of passes ≥ 10°. The values pass through the URL so the page stays shareable.

No JS? Fill the form by hand. The geolocation button needs JavaScript.